QPF
0.00 0.00 0.00 0.01 0.10 0.06 0.00 0.00 0.00 0.00 0.00 0.00 0.00 0.00 0.00 0.00 0.00 0.04 0.01 0.00 0.00 0.00 0.00 0.02 0.06 0.07 0.06 0.05 0.02 0.08 0.09 0.03 0.02 0.02 0.02 0.01 0.03 0.05 0.05 0.04 0.02 0.01 0.00 0.02 0.07 0.09 0.04 0.02 0.04
0.00 0.00 0.00 0.04 0.12 0.02 0.00 0.00 0.00 0.00 0.00 0.00 0.00 0.00 0.00 0.00 0.00 0.00 0.00 0.00 0.00 0.00 0.00 0.02 0.04 0.08 0.08 0.04 0.04 0.15 0.17 0.10 0.04 0.02 0.01 0.00 0.02 0.08 0.14 0.13 0.04 0.01 0.00 0.01 0.05 0.08 0.04 0.03 0.06
0.00 0.00 0.00 0.03 0.03 0.00 0.00 0.00 0.00 0.00 0.00 0.00 0.00 0.00 0.00 0.00 0.00 0.00 0.00 0.00 0.00 0.00 0.01 0.10 0.12 0.09 0.07 0.06 0.12 0.25 0.22 0.18 0.08 0.02 0.00 0.00 0.02 0.06 0.12 0.09 0.04 0.00 0.00 0.01 0.03 0.05 0.03 0.02 0.03
0.00 0.00 0.00 0.01 0.00 0.00 0.00 0.00 0.00 0.00 0.00 0.00 0.00 0.00 0.00 0.00 0.00 0.00 0.00 0.00 0.00 0.00 0.02 0.07 0.09 0.09 0.09 0.13 0.21 0.23 0.23 0.27 0.13 0.02 0.01 0.04 0.06 0.06 0.10 0.10 0.04 0.01 0.00 0.00 0.01 0.02 0.02 0.01 0.01
0.00 0.00 0.04 0.07 0.01 0.00 0.00 0.00 0.00 0.00 0.00 0.00 0.00 0.00 0.00 0.00 0.00 0.00 0.00 0.00 0.00 0.00 0.02 0.03 0.08 0.09 0.11 0.16 0.22 0.22 0.21 0.27 0.19 0.04 0.05 0.08 0.05 0.05 0.08 0.10 0.04 0.01 0.00 0.00 0.00 0.01 0.03 0.03 0.02
0.00 0.00 0.09 0.12 0.01 0.00 0.00 0.00 0.00 0.00 0.00 0.00 0.00 0.00 0.00 0.00 0.00 0.00 0.00 0.00 0.00 0.00 0.01 0.02 0.04 0.05 0.09 0.14 0.19 0.17 0.18 0.22 0.17 0.08 0.07 0.05 0.06 0.05 0.07 0.05 0.02 0.00 0.00 0.00 0.00 0.03 0.03 0.02 0.01
0.00 0.01 0.05 0.04 0.00 0.00 0.00 0.00 0.00 0.00 0.00 0.00 0.00 0.00 0.00 0.00 0.00 0.00 0.00 0.00 0.00 0.00 0.00 0.01 0.01 0.01 0.02 0.07 0.13 0.15 0.17 0.17 0.10 0.06 0.03 0.04 0.06 0.04 0.03 0.01 0.00 0.00 0.00 0.00 0.01 0.02 0.02 0.00 0.00
0.00 0.00 0.00 0.00 0.00 0.00 0.00 0.00 0.00 0.00 0.00 0.00 0.00 0.00 0.00 0.00 0.00 0.00 0.00 0.00 0.00 0.00 0.00 0.00 0.01 0.01 0.02 0.02 0.06 0.11 0.13 0.13 0.09 0.06 0.04 0.03 0.03 0.03 0.02 0.00 0.00 0.00 0.00 0.00 0.00 0.01 0.01 0.00 0.00
0.00 0.00 0.00 0.01 0.00 0.00 0.00 0.00 0.00 0.00 0.00 0.00 0.00 0.00 0.00 0.00 0.00 0.00 0.00 0.00 0.00 0.00 0.00 0.00 0.00 0.00 0.02 0.05 0.06 0.09 0.10 0.09 0.06 0.04 0.04 0.05 0.04 0.05 0.06 0.01 0.00 0.00 0.00 0.00 0.01 0.01 0.01 0.00 0.00
0.00 0.00 0.00 0.01 0.00 0.00 0.00 0.00 0.00 0.00 0.00 0.00 0.00 0.00 0.00 0.00 0.00 0.00 0.00 0.00 0.00 0.00 0.00 0.00 0.00 0.00 0.01 0.08 0.22 0.33 0.20 0.11 0.06 0.02 0.02 0.09 0.05 0.09 0.08 0.01 0.00 0.01 0.00 0.00 0.00 0.01 0.00 0.00 0.00
0.00 0.00 0.00 0.00 0.00 0.00 0.00 0.00 0.00 0.00 0.00 0.00 0.00 0.00 0.00 0.00 0.00 0.00 0.00 0.00 0.00 0.00 0.00 0.00 0.00 0.00 0.00 0.07 0.21 0.34 0.35 0.25 0.20 0.04 0.01 0.05 0.02 0.02 0.03 0.01 0.02 0.03 0.00 0.00 0.00 0.00 0.00 0.00 0.00
0.00 0.00 0.00 0.00 0.00 0.00 0.00 0.00 0.00 0.00 0.00 0.00 0.00 0.00 0.00 0.00 0.00 0.00 0.00 0.00 0.00 0.00 0.00 0.00 0.00 0.00 0.00 0.01 0.02 0.07 0.12 0.12 0.13 0.06 0.01 0.01 0.00 0.00 0.00 0.00 0.01 0.01 0.00 0.00 0.00 0.00 0.00 0.00 0.00
0.00 0.00 0.00 0.00 0.00 0.00 0.00 0.00 0.00 0.00 0.00 0.00 0.00 0.00 0.00 0.00 0.00 0.00 0.00 0.00 0.00 0.00 0.00 0.00 0.00 0.00 0.00 0.00 0.00 0.01 0.02 0.03 0.04 0.05 0.06 0.01 0.00 0.00 0.00 0.00 0.00 0.00 0.00 0.00 0.00 0.00 0.00 0.00 0.00
0.00 0.00 0.00 0.00 0.00 0.00 0.00 0.00 0.00 0.00 0.00 0.00 0.00 0.00 0.00 0.00 0.00 0.00 0.00 0.00 0.00 0.00 0.00 0.00 0.00 0.00 0.00 0.00 0.00 0.00 0.01 0.01 0.01 0.01 0.03 0.02 0.00 0.00 0.00 0.00 0.00 0.00 0.00 0.00 0.00 0.00 0.00 0.00 0.00
0.00 0.00 0.00 0.00 0.00 0.00 0.00 0.00 0.00 0.00 0.00 0.00 0.00 0.00 0.00 0.00 0.00 0.00 0.00 0.00 0.00 0.00 0.00 0.00 0.00 0.00 0.00 0.00 0.00 0.00 0.00 0.00 0.00 0.01 0.01 0.00 0.00 0.00 0.00 0.00 0.00 0.00 0.00 0.00 0.00 0.00 0.00 0.00 0.00
0.00 0.00 0.00 0.00 0.00 0.00 0.00 0.00 0.00 0.00 0.00 0.00 0.00 0.00 0.00 0.00 0.00 0.00 0.00 0.00 0.00 0.00 0.00 0.00 0.00 0.00 0.00 0.00 0.00 0.00 0.00 0.00 0.00 0.01 0.01 0.00 0.00 0.00 0.00 0.00 0.00 0.00 0.00 0.00 0.00 0.00 0.00 0.00 0.00
0.00 0.00 0.00 0.00 0.00 0.00 0.00 0.00 0.00 0.00 0.00 0.00 0.00 0.00 0.00 0.00 0.00 0.00 0.00 0.00 0.00 0.00 0.00 0.00 0.00 0.00 0.00 0.00 0.00 0.01 0.01 0.01 0.01 0.00 0.02 0.03 0.01 0.00 0.00 0.00 0.00 0.00 0.00 0.00 0.00 0.00 0.00 0.00 0.00
0.07 0.02 0.02 0.01 0.01 0.01 0.01 0.00 0.00 0.00 0.00 0.00 0.00 0.00 0.00 0.00 0.00 0.00 0.00 0.00 0.00 0.00 0.00 0.00 0.00 0.00 0.01 0.02 0.03 0.10 0.12 0.10 0.07 0.04 0.03 0.05 0.04 0.01 0.00 0.00 0.00 0.00 0.00 0.03 0.03 0.04 0.03 0.01 0.00
0.01 0.01 0.02 0.02 0.03 0.04 0.03 0.01 0.00 0.00 0.00 0.00 0.00 0.00 0.00 0.00 0.00 0.00 0.00 0.00 0.00 0.00 0.00 0.00 0.00 0.01 0.03 0.04 0.06 0.15 0.32 0.26 0.22 0.18 0.07 0.10 0.12 0.06 0.03 0.02 0.00 0.00 0.01 0.02 0.07 0.21 0.23 0.13 0.01
0.03 0.05 0.04 0.04 0.03 0.04 0.03 0.01 0.00 0.00 0.00 0.00 0.00 0.00 0.00 0.00 0.00 0.00 0.00 0.00 0.00 0.00 0.00 0.00 0.00 0.01 0.01 0.03 0.05 0.12 0.17 0.08 0.09 0.12 0.14 0.11 0.08 0.04 0.03 0.05 0.04 0.02 0.04 0.10 0.18 0.32 0.39 0.21 0.03
0.06 0.08 0.10 0.10 0.06 0.04 0.03 0.02 0.00 0.00 0.00 0.00 0.00 0.00 0.00 0.00 0.00 0.00 0.00 0.00 0.00 0.00 0.00 0.00 0.00 0.01 0.01 0.01 0.03 0.05 0.08 0.10 0.19 0.21 0.22 0.20 0.15 0.08 0.04 0.05 0.05 0.04 0.06 0.12 0.13 0.26 0.43 0.27 0.09
0.05 0.05 0.06 0.09 0.12 0.12 0.12 0.12 0.03 0.01 0.01 0.00 0.00 0.00 0.00 0.00 0.00 0.00 0.00 0.00 0.00 0.00 0.00 0.00 0.00 0.00 0.01 0.01 0.03 0.07 0.10 0.14 0.16 0.20 0.20 0.13 0.12 0.09 0.06 0.07 0.05 0.04 0.05 0.12 0.13 0.19 0.34 0.41 0.29
0.02 0.01 0.02 0.05 0.08 0.08 0.08 0.11 0.04 0.02 0.02 0.01 0.00 0.00 0.00 0.00 0.00 0.00 0.00 0.00 0.00 0.00 0.00 0.00 0.00 0.00 0.00 0.01 0.04 0.07 0.08 0.09 0.11 0.13 0.11 0.13 0.10 0.05 0.04 0.08 0.04 0.03 0.05 0.11 0.18 0.28 0.36 0.44 0.37
0.00 0.01 0.01 0.02 0.04 0.04 0.03 0.06 0.04 0.02 0.01 0.00 0.00 0.00 0.00 0.00 0.00 0.00 0.00 0.00 0.00 0.00 0.00 0.00 0.00 0.00 0.00 0.01 0.01 0.03 0.05 0.07 0.08 0.06 0.05 0.06 0.09 0.11 0.12 0.16 0.10 0.05 0.04 0.08 0.14 0.24 0.32 0.41 0.43
0.00 0.01 0.05 0.06 0.05 0.03 0.01 0.03 0.02 0.01 0.00 0.00 0.00 0.00 0.00 0.00 0.00 0.01 0.00 0.00 0.00 0.00 0.00 0.00 0.00 0.00 0.00 0.00 0.00 0.01 0.02 0.04 0.04 0.05 0.04 0.04 0.05 0.06 0.10 0.18 0.24 0.20 0.12 0.07 0.07 0.13 0.17 0.27 0.42
0.00 0.01 0.06 0.08 0.07 0.03 0.01 0.00 0.00 0.00 0.00 0.00 0.00 0.00 0.00 0.00 0.00 0.01 0.00 0.00 0.00 0.00 0.00 0.00 0.00 0.00 0.00 0.00 0.00 0.01 0.01 0.01 0.01 0.01 0.02 0.03 0.03 0.02 0.01 0.05 0.15 0.25 0.28 0.19 0.11 0.06 0.09 0.17 0.27
0.00 0.00 0.01 0.02 0.02 0.02 0.01 0.00 0.00 0.00 0.00 0.00 0.00 0.00 0.00 0.00 0.00 0.00 0.00 0.00 0.00 0.00 0.00 0.00 0.00 0.00 0.00 0.00 0.00 0.00 0.01 0.00 0.00 0.01 0.02 0.02 0.01 0.01 0.00 0.03 0.05 0.07 0.09 0.10 0.09 0.08 0.06 0.08 0.19
0.00 0.01 0.01 0.04 0.07 0.05 0.03 0.02 0.02 0.01 0.01 0.00 0.01 0.03 0.03 0.04 0.04 0.04 0.01 0.00 0.00 0.00 0.00 0.00 0.00 0.00 0.00 0.00 0.00 0.00 0.00 0.00 0.00 0.00 0.02 0.01 0.01 0.01 0.00 0.00 0.01 0.01 0.01 0.03 0.07 0.10 0.10 0.10 0.14
0.04 0.05 0.06 0.09 0.09 0.12 0.14 0.13 0.08 0.08 0.05 0.02 0.03 0.04 0.03 0.03 0.04 0.04 0.03 0.01 0.00 0.00 0.00 0.00 0.00 0.00 0.00 0.00 0.00 0.00 0.00 0.00 0.00 0.00 0.01 0.01 0.01 0.01 0.00 0.00 0.00 0.01 0.02 0.03 0.06 0.08 0.08 0.10 0.12
0.03 0.03 0.08 0.17 0.13 0.15 0.16 0.10 0.05 0.06 0.05 0.03 0.04 0.03 0.02 0.02 0.02 0.01 0.01 0.01 0.00 0.00 0.00 0.00 0.00 0.00 0.00 0.00 0.00 0.00 0.00 0.00 0.00 0.00 0.00 0.01 0.00 0.00 0.00 0.01 0.01 0.01 0.03 0.04 0.07 0.08 0.09 0.12 0.14
MSLP
1004.20 1004.90 1005.82 1006.82 1007.75 1008.47 1008.88 1008.96 1008.76 1008.39 1007.96 1007.60 1007.39 1007.36 1007.47 1007.67 1007.86 1007.99 1008.02 1007.97 1007.89 1007.87 1007.97 1008.23 1008.65 1009.18 1009.74 1010.25 1010.64 1010.88 1010.97 1010.97 1010.95 1010.96 1011.07 1011.28 1011.57 1011.89 1012.20 1012.43 1012.58 1012.63 1012.63 1012.60 1012.58 1012.58 1012.62 1012.67 1012.72
1004.58 1005.43 1006.43 1007.42 1008.24 1008.77 1008.96 1008.80 1008.38 1007.82 1007.28 1006.86 1006.65 1006.65 1006.81 1007.06 1007.32 1007.50 1007.58 1007.60 1007.60 1007.66 1007.85 1008.19 1008.69 1009.27 1009.86 1010.39 1010.79 1011.03 1011.13 1011.15 1011.14 1011.19 1011.31 1011.52 1011.80 1012.09 1012.36 1012.55 1012.67 1012.71 1012.72 1012.72 1012.74 1012.78 1012.85 1012.92 1012.96
1005.11 1006.08 1007.10 1008.03 1008.70 1009.02 1008.96 1008.56 1007.93 1007.23 1006.60 1006.16 1005.96 1006.01 1006.24 1006.55 1006.87 1007.10 1007.24 1007.31 1007.37 1007.50 1007.75 1008.14 1008.68 1009.29 1009.89 1010.43 1010.83 1011.09 1011.22 1011.28 1011.32 1011.40 1011.55 1011.77 1012.02 1012.28 1012.49 1012.64 1012.73 1012.76 1012.78 1012.82 1012.88 1012.98 1013.08 1013.17 1013.21
1005.73 1006.77 1007.78 1008.60 1009.11 1009.21 1008.92 1008.31 1007.52 1006.71 1006.04 1005.61 1005.46 1005.56 1005.85 1006.22 1006.58 1006.85 1007.03 1007.13 1007.23 1007.39 1007.68 1008.10 1008.64 1009.25 1009.86 1010.39 1010.79 1011.07 1011.25 1011.36 1011.46 1011.59 1011.78 1012.00 1012.24 1012.46 1012.63 1012.74 1012.79 1012.82 1012.86 1012.93 1013.04 1013.18 1013.32 1013.42 1013.46
1006.39 1007.44 1008.39 1009.09 1009.42 1009.33 1008.86 1008.10 1007.21 1006.36 1005.70 1005.31 1005.22 1005.38 1005.72 1006.12 1006.49 1006.77 1006.95 1007.06 1007.18 1007.36 1007.65 1008.08 1008.62 1009.21 1009.80 1010.31 1010.72 1011.02 1011.23 1011.40 1011.56 1011.75 1011.97 1012.22 1012.45 1012.65 1012.78 1012.86 1012.89 1012.92 1012.97 1013.06 1013.20 1013.37 1013.53 1013.64 1013.67
1007.00 1008.01 1008.87 1009.43 1009.59 1009.35 1008.75 1007.92 1007.01 1006.19 1005.58 1005.27 1005.25 1005.47 1005.83 1006.23 1006.58 1006.83 1006.99 1007.09 1007.20 1007.38 1007.68 1008.11 1008.64 1009.21 1009.77 1010.26 1010.66 1010.97 1011.21 1011.42 1011.63 1011.87 1012.13 1012.40 1012.64 1012.83 1012.95 1013.01 1013.03 1013.06 1013.12 1013.22 1013.37 1013.54 1013.70 1013.80 1013.83
1007.50 1008.42 1009.14 1009.54 1009.57 1009.22 1008.56 1007.73 1006.88 1006.15 1005.65 1005.44 1005.50 1005.75 1006.11 1006.48 1006.78 1006.97 1007.09 1007.16 1007.26 1007.45 1007.75 1008.18 1008.70 1009.26 1009.79 1010.26 1010.64 1010.95 1011.20 1011.44 1011.69 1011.96 1012.25 1012.54 1012.80 1012.99 1013.11 1013.18 1013.20 1013.23 1013.29 1013.39 1013.53 1013.68 1013.81 1013.89 1013.91
1007.85 1008.62 1009.18 1009.43 1009.33 1008.91 1008.26 1007.49 1006.74 1006.16 1005.80 1005.70 1005.83 1006.11 1006.45 1006.76 1006.99 1007.12 1007.18 1007.22 1007.32 1007.51 1007.84 1008.28 1008.81 1009.35 1009.87 1010.32 1010.68 1010.97 1011.21 1011.46 1011.72 1012.01 1012.32 1012.63 1012.90 1013.11 1013.25 1013.33 1013.37 1013.40 1013.45 1013.54 1013.64 1013.76 1013.85 1013.91 1013.91
1008.02 1008.61 1008.98 1009.07 1008.87 1008.41 1007.80 1007.13 1006.54 1006.11 1005.91 1005.93 1006.12 1006.41 1006.72 1006.96 1007.12 1007.18 1007.19 1007.21 1007.31 1007.53 1007.88 1008.36 1008.90 1009.45 1009.96 1010.39 1010.73 1011.00 1011.23 1011.46 1011.71 1012.00 1012.31 1012.63 1012.92 1013.15 1013.32 1013.43 1013.49 1013.53 1013.58 1013.64 1013.71 1013.78 1013.84 1013.86 1013.85
1008.03 1008.42 1008.59 1008.53 1008.24 1007.76 1007.20 1006.65 1006.21 1005.95 1005.89 1006.01 1006.26 1006.55 1006.82 1007.01 1007.09 1007.10 1007.07 1007.09 1007.20 1007.45 1007.84 1008.35 1008.92 1009.49 1010.00 1010.43 1010.75 1011.00 1011.21 1011.41 1011.64 1011.91 1012.22 1012.54 1012.84 1013.10 1013.30 1013.43 1013.52 1013.59 1013.64 1013.68 1013.73 1013.76 1013.78 1013.78 1013.77
1007.94 1008.12 1008.11 1007.90 1007.53 1007.05 1006.54 1006.09 1005.78 1005.65 1005.70 1005.90 1006.18 1006.47 1006.70 1006.84 1006.88 1006.85 1006.82 1006.84 1006.97 1007.26 1007.69 1008.23 1008.82 1009.41 1009.93 1010.36 1010.68 1010.92 1011.11 1011.29 1011.50 1011.75 1012.04 1012.34 1012.65 1012.92 1013.15 1013.33 1013.46 1013.55 1013.62 1013.66 1013.69 1013.71 1013.71 1013.71 1013.71
1007.82 1007.82 1007.65 1007.33 1006.89 1006.39 1005.92 1005.55 1005.32 1005.27 1005.38 1005.60 1005.89 1006.16 1006.36 1006.47 1006.49 1006.46 1006.43 1006.47 1006.64 1006.94 1007.40 1007.96 1008.57 1009.17 1009.71 1010.15 1010.49 1010.74 1010.93 1011.10 1011.29 1011.51 1011.77 1012.06 1012.36 1012.64 1012.90 1013.11 1013.28 1013.42 1013.52 1013.59 1013.63 1013.65 1013.67 1013.68 1013.71
1007.77 1007.64 1007.36 1006.95 1006.46 1005.95 1005.50 1005.14 1004.93 1004.89 1004.99 1005.19 1005.44 1005.67 1005.85 1005.95 1005.97 1005.96 1005.97 1006.04 1006.23 1006.55 1007.01 1007.57 1008.19 1008.79 1009.35 1009.81 1010.17 1010.45 1010.66 1010.85 1011.03 1011.23 1011.46 1011.72 1012.00 1012.29 1012.56 1012.80 1013.02 1013.21 1013.36 1013.48 1013.56 1013.62 1013.67 1013.72 1013.79
1007.88 1007.68 1007.34 1006.90 1006.40 1005.89 1005.41 1005.03 1004.77 1004.66 1004.67 1004.78 1004.94 1005.11 1005.26 1005.35 1005.41 1005.44 1005.49 1005.60 1005.81 1006.14 1006.59 1007.13 1007.72 1008.32 1008.88 1009.37 1009.78 1010.11 1010.37 1010.58 1010.77 1010.96 1011.17 1011.39 1011.64 1011.91 1012.18 1012.46 1012.72 1012.96 1013.18 1013.36 1013.51 1013.64 1013.75 1013.85 1013.98
1008.19 1008.00 1007.68 1007.27 1006.79 1006.27 1005.77 1005.31 1004.94 1004.68 1004.52 1004.47 1004.50 1004.58 1004.67 1004.77 1004.86 1004.95 1005.06 1005.22 1005.46 1005.78 1006.20 1006.69 1007.25 1007.83 1008.40 1008.93 1009.39 1009.78 1010.10 1010.36 1010.57 1010.75 1010.93 1011.12 1011.33 1011.56 1011.83 1012.11 1012.41 1012.71 1013.00 1013.27 1013.50 1013.71 1013.89 1014.07 1014.25
1008.69 1008.58 1008.36 1008.04 1007.62 1007.13 1006.58 1006.02 1005.48 1005.00 1004.62 1004.35 1004.19 1004.13 1004.16 1004.26 1004.39 1004.55 1004.74 1004.96 1005.22 1005.53 1005.91 1006.36 1006.87 1007.42 1007.99 1008.55 1009.07 1009.53 1009.92 1010.23 1010.47 1010.65 1010.80 1010.94 1011.10 1011.30 1011.54 1011.82 1012.15 1012.50 1012.86 1013.20 1013.53 1013.82 1014.09 1014.34 1014.57
1009.32 1009.36 1009.30 1009.13 1008.83 1008.37 1007.79 1007.11 1006.36 1005.63 1004.96 1004.42 1004.03 1003.82 1003.76 1003.84 1004.02 1004.26 1004.53 1004.82 1005.12 1005.43 1005.78 1006.18 1006.64 1007.15 1007.72 1008.30 1008.87 1009.40 1009.85 1010.21 1010.48 1010.66 1010.78 1010.88 1010.98 1011.13 1011.33 1011.61 1011.95 1012.34 1012.76 1013.18 1013.59 1013.97 1014.32 1014.63 1014.92
1009.97 1010.20 1010.36 1010.38 1010.23 1009.85 1009.24 1008.43 1007.48 1006.47 1005.50 1004.66 1004.02 1003.62 1003.46 1003.52 1003.74 1004.07 1004.43 1004.80 1005.15 1005.48 1005.81 1006.17 1006.58 1007.07 1007.61 1008.21 1008.82 1009.39 1009.90 1010.30 1010.59 1010.76 1010.86 1010.90 1010.95 1011.04 1011.21 1011.47 1011.81 1012.23 1012.70 1013.19 1013.66 1014.11 1014.53 1014.91 1015.24
1010.51 1010.96 1011.36 1011.61 1011.62 1011.34 1010.73 1009.82 1008.66 1007.38 1006.11 1004.98 1004.09 1003.50 1003.24 1003.27 1003.53 1003.94 1004.41 1004.87 1005.29 1005.66 1005.99 1006.33 1006.70 1007.15 1007.68 1008.27 1008.89 1009.49 1010.03 1010.45 1010.74 1010.91 1010.97 1010.97 1010.97 1011.02 1011.15 1011.39 1011.73 1012.17 1012.67 1013.19 1013.72 1014.22 1014.69 1015.11 1015.49
1010.83 1011.50 1012.13 1012.60 1012.80 1012.63 1012.04 1011.05 1009.74 1008.23 1006.70 1005.30 1004.18 1003.42 1003.05 1003.06 1003.37 1003.86 1004.44 1005.01 1005.51 1005.93 1006.28 1006.61 1006.95 1007.36 1007.86 1008.42 1009.03 1009.63 1010.17 1010.60 1010.88 1011.03 1011.06 1011.03 1011.00 1011.01 1011.11 1011.33 1011.68 1012.12 1012.63 1013.18 1013.73 1014.25 1014.75 1015.20 1015.60
1010.87 1011.72 1012.56 1013.23 1013.60 1013.55 1013.01 1011.98 1010.56 1008.88 1007.15 1005.55 1004.24 1003.35 1002.91 1002.90 1003.25 1003.83 1004.51 1005.18 1005.77 1006.25 1006.63 1006.95 1007.28 1007.65 1008.09 1008.62 1009.19 1009.76 1010.27 1010.67 1010.94 1011.07 1011.08 1011.04 1010.98 1010.98 1011.07 1011.28 1011.62 1012.05 1012.56 1013.10 1013.65 1014.18 1014.67 1015.13 1015.55
1010.65 1011.62 1012.61 1013.44 1013.95 1014.01 1013.53 1012.51 1011.05 1009.28 1007.43 1005.70 1004.28 1003.30 1002.82 1002.81 1003.20 1003.84 1004.61 1005.37 1006.04 1006.58 1006.99 1007.31 1007.61 1007.93 1008.32 1008.78 1009.29 1009.81 1010.28 1010.64 1010.88 1011.00 1011.00 1010.95 1010.90 1010.90 1010.99 1011.21 1011.54 1011.96 1012.45 1012.97 1013.49 1013.98 1014.45 1014.89 1015.30
1010.27 1011.29 1012.35 1013.27 1013.88 1014.03 1013.62 1012.66 1011.21 1009.44 1007.56 1005.79 1004.33 1003.32 1002.82 1002.82 1003.24 1003.94 1004.77 1005.59 1006.32 1006.89 1007.32 1007.63 1007.89 1008.17 1008.49 1008.88 1009.32 1009.76 1010.18 1010.50 1010.72 1010.82 1010.83 1010.79 1010.76 1010.78 1010.89 1011.11 1011.43 1011.84 1012.30 1012.77 1013.24 1013.68 1014.10 1014.49 1014.87
1009.87 1010.85 1011.91 1012.85 1013.51 1013.72 1013.39 1012.50 1011.13 1009.43 1007.60 1005.87 1004.44 1003.45 1002.97 1002.98 1003.42 1004.14 1004.99 1005.83 1006.57 1007.15 1007.57 1007.87 1008.09 1008.31 1008.57 1008.88 1009.24 1009.63 1009.98 1010.27 1010.46 1010.56 1010.59 1010.58 1010.58 1010.63 1010.76 1011.00 1011.32 1011.70 1012.12 1012.54 1012.94 1013.31 1013.66 1013.99 1014.32
1009.59 1010.47 1011.44 1012.34 1012.98 1013.23 1012.97 1012.19 1010.94 1009.36 1007.65 1006.03 1004.68 1003.74 1003.29 1003.31 1003.73 1004.43 1005.25 1006.07 1006.78 1007.34 1007.73 1007.98 1008.16 1008.33 1008.53 1008.78 1009.08 1009.41 1009.72 1009.98 1010.17 1010.27 1010.32 1010.35 1010.38 1010.47 1010.63 1010.88 1011.20 1011.56 1011.94 1012.30 1012.63 1012.92 1013.19 1013.44 1013.71
1009.54 1010.26 1011.09 1011.89 1012.48 1012.73 1012.53 1011.85 1010.75 1009.33 1007.78 1006.30 1005.06 1004.19 1003.77 1003.77 1004.15 1004.78 1005.53 1006.27 1006.91 1007.40 1007.74 1007.95 1008.09 1008.21 1008.37 1008.58 1008.84 1009.13 1009.42 1009.67 1009.86 1009.99 1010.06 1010.12 1010.20 1010.32 1010.52 1010.78 1011.09 1011.44 1011.78 1012.09 1012.36 1012.57 1012.76 1012.94 1013.14
1009.79 1010.32 1010.98 1011.64 1012.15 1012.37 1012.21 1011.64 1010.68 1009.42 1008.05 1006.72 1005.58 1004.78 1004.35 1004.32 1004.61 1005.13 1005.75 1006.38 1006.91 1007.31 1007.58 1007.74 1007.85 1007.95 1008.09 1008.28 1008.53 1008.82 1009.11 1009.36 1009.57 1009.72 1009.83 1009.92 1010.03 1010.19 1010.40 1010.67 1010.99 1011.33 1011.64 1011.92 1012.14 1012.31 1012.43 1012.55 1012.68
1010.31 1010.66 1011.14 1011.65 1012.06 1012.25 1012.11 1011.61 1010.77 1009.67 1008.45 1007.24 1006.20 1005.42 1004.97 1004.86 1005.03 1005.40 1005.87 1006.34 1006.74 1007.04 1007.24 1007.36 1007.44 1007.54 1007.69 1007.90 1008.17 1008.47 1008.78 1009.06 1009.29 1009.47 1009.61 1009.73 1009.87 1010.04 1010.27 1010.55 1010.88 1011.21 1011.52 1011.79 1011.99 1012.14 1012.23 1012.30 1012.38
1011.05 1011.24 1011.58 1011.96 1012.27 1012.40 1012.26 1011.81 1011.06 1010.07 1008.95 1007.83 1006.83 1006.05 1005.54 1005.31 1005.33 1005.53 1005.82 1006.13 1006.40 1006.60 1006.73 1006.82 1006.90 1007.02 1007.20 1007.45 1007.76 1008.11 1008.45 1008.77 1009.03 1009.23 1009.39 1009.53 1009.67 1009.86 1010.09 1010.38 1010.72 1011.06 1011.39 1011.67 1011.90 1012.05 1012.14 1012.20 1012.25
1011.90 1012.00 1012.23 1012.51 1012.73 1012.81 1012.65 1012.21 1011.50 1010.56 1009.50 1008.41 1007.42 1006.59 1005.99 1005.63 1005.49 1005.51 1005.63 1005.78 1005.93 1006.04 1006.12 1006.20 1006.29 1006.45 1006.68 1006.98 1007.34 1007.74 1008.12 1008.47 1008.75 1008.97 1009.14 1009.28 1009.42 1009.60 1009.84 1010.14 1010.48 1010.85 1011.21 1011.53 1011.79 1011.98 1012.10 1012.18 1012.24
Thickness
5854 5860 5856 5843 5816 5800 5799 5811 5821 5820 5824 5835 5840 5836 5827 5816 5805 5791 5819 5835 5833 5826 5818 5812 5808 5803 5799 5795 5791 5787 5783 5780 5778 5776 5774 5771 5769 5767 5766 5764 5763 5761 5760 5757 5755 5754 5754 5757 5761
5856 5860 5847 5828 5794 5780 5794 5814 5817 5822 5832 5841 5839 5834 5826 5819 5825 5819 5825 5832 5832 5826 5818 5813 5807 5802 5798 5794 5790 5786 5782 5779 5777 5774 5771 5769 5767 5764 5763 5762 5760 5759 5757 5755 5753 5751 5752 5754 5759
5853 5856 5833 5818 5799 5791 5798 5817 5823 5832 5840 5839 5834 5832 5821 5816 5826 5823 5826 5831 5831 5826 5820 5813 5806 5801 5797 5793 5789 5785 5781 5778 5776 5773 5769 5767 5764 5762 5760 5760 5758 5757 5755 5754 5752 5751 5751 5753 5757
5852 5842 5833 5811 5800 5812 5816 5824 5832 5830 5837 5841 5835 5823 5821 5829 5831 5827 5830 5831 5827 5823 5818 5810 5805 5800 5795 5791 5788 5784 5781 5778 5775 5771 5768 5765 5763 5760 5759 5758 5757 5756 5755 5753 5751 5751 5751 5752 5755
5847 5828 5809 5791 5804 5821 5829 5833 5835 5827 5829 5834 5832 5815 5812 5827 5833 5830 5830 5829 5824 5820 5815 5807 5802 5798 5794 5790 5787 5783 5780 5777 5773 5770 5766 5763 5761 5759 5757 5756 5754 5754 5753 5753 5752 5751 5750 5751 5753
5828 5823 5791 5768 5794 5822 5831 5838 5836 5830 5830 5834 5831 5817 5813 5828 5829 5828 5828 5826 5824 5818 5814 5806 5800 5796 5793 5789 5785 5782 5779 5775 5772 5769 5765 5762 5760 5758 5756 5754 5752 5751 5751 5752 5752 5751 5750 5750 5751
5816 5809 5794 5788 5803 5814 5827 5839 5834 5828 5828 5833 5837 5817 5814 5823 5826 5829 5826 5825 5822 5818 5814 5807 5801 5797 5793 5789 5785 5781 5778 5775 5771 5768 5765 5761 5758 5756 5754 5752 5750 5750 5750 5750 5750 5750 5750 5750 5751
5823 5812 5808 5808 5808 5810 5830 5837 5838 5832 5830 5842 5840 5817 5809 5821 5828 5828 5824 5821 5819 5816 5815 5811 5805 5799 5794 5788 5784 5780 5776 5773 5770 5767 5764 5760 5757 5754 5752 5750 5748 5748 5747 5747 5747 5747 5748 5749 5750
5826 5804 5798 5798 5809 5817 5833 5830 5835 5843 5839 5837 5839 5832 5828 5829 5827 5820 5815 5815 5815 5814 5814 5813 5807 5802 5797 5789 5783 5779 5774 5771 5768 5765 5762 5758 5756 5753 5751 5749 5746 5745 5744 5744 5743 5744 5746 5747 5748
5817 5796 5806 5819 5829 5828 5832 5830 5832 5832 5825 5826 5830 5832 5832 5826 5820 5812 5808 5808 5809 5811 5812 5812 5808 5802 5798 5791 5782 5778 5774 5770 5768 5765 5761 5758 5757 5753 5750 5747 5745 5743 5741 5741 5741 5742 5743 5744 5745
5816 5807 5821 5831 5838 5835 5831 5830 5834 5823 5815 5824 5824 5827 5827 5821 5817 5813 5811 5812 5811 5812 5812 5811 5808 5802 5796 5787 5781 5776 5773 5769 5767 5766 5763 5759 5756 5752 5747 5744 5742 5740 5739 5740 5740 5740 5741 5744 5745
5812 5816 5825 5828 5835 5829 5827 5830 5828 5825 5825 5839 5839 5835 5828 5820 5816 5815 5814 5815 5814 5812 5809 5811 5808 5802 5795 5788 5782 5776 5772 5769 5767 5766 5765 5761 5758 5754 5750 5746 5741 5739 5738 5740 5740 5741 5741 5743 5745
5808 5813 5824 5829 5830 5828 5828 5826 5823 5825 5838 5843 5841 5834 5828 5824 5822 5822 5822 5820 5816 5811 5808 5808 5806 5801 5795 5788 5783 5777 5773 5771 5768 5767 5764 5761 5758 5754 5750 5749 5743 5741 5740 5739 5740 5740 5739 5738 5738
5808 5813 5817 5822 5825 5826 5820 5820 5821 5824 5838 5838 5835 5831 5829 5827 5825 5823 5822 5819 5816 5812 5809 5807 5804 5801 5795 5787 5782 5779 5775 5772 5769 5766 5763 5760 5757 5754 5750 5748 5744 5741 5739 5738 5738 5738 5734 5732 5731
5811 5802 5806 5816 5821 5823 5820 5809 5817 5831 5836 5831 5830 5829 5829 5829 5829 5823 5823 5821 5819 5814 5812 5807 5803 5800 5794 5788 5783 5779 5775 5770 5768 5765 5762 5758 5755 5753 5749 5746 5742 5739 5737 5736 5736 5734 5733 5728 5725
5801 5794 5788 5812 5822 5822 5808 5791 5818 5835 5830 5823 5824 5825 5825 5827 5829 5828 5826 5824 5821 5816 5812 5807 5803 5797 5792 5787 5783 5779 5775 5770 5766 5762 5760 5758 5754 5752 5749 5745 5741 5738 5736 5734 5731 5728 5727 5724 5722
5785 5771 5772 5790 5810 5807 5799 5792 5815 5829 5826 5820 5821 5821 5821 5823 5826 5827 5827 5824 5820 5816 5811 5805 5799 5793 5789 5784 5779 5777 5774 5769 5764 5760 5757 5755 5753 5750 5747 5743 5739 5737 5734 5731 5728 5725 5723 5720 5719
5759 5758 5759 5759 5770 5772 5769 5785 5809 5820 5820 5817 5819 5820 5819 5818 5820 5825 5825 5823 5820 5815 5810 5804 5797 5791 5786 5780 5775 5772 5768 5765 5764 5759 5755 5752 5751 5749 5747 5741 5737 5734 5730 5727 5725 5721 5720 5718 5715
5758 5753 5752 5757 5759 5751 5746 5757 5790 5811 5812 5811 5812 5816 5817 5817 5821 5822 5820 5818 5815 5811 5806 5801 5793 5787 5780 5773 5767 5762 5759 5758 5756 5755 5752 5749 5747 5746 5744 5739 5735 5731 5727 5723 5721 5718 5715 5713 5712
5742 5737 5740 5748 5750 5738 5734 5744 5770 5794 5805 5809 5811 5814 5816 5815 5813 5811 5810 5808 5805 5802 5799 5795 5787 5781 5775 5769 5764 5760 5756 5754 5751 5749 5746 5743 5741 5740 5739 5734 5729 5727 5724 5720 5717 5713 5708 5707 5709
5732 5724 5723 5720 5728 5732 5722 5726 5747 5774 5798 5807 5811 5814 5817 5813 5806 5802 5801 5798 5797 5792 5788 5784 5778 5772 5768 5764 5759 5755 5750 5747 5744 5740 5738 5736 5735 5735 5733 5729 5725 5722 5720 5716 5713 5709 5704 5699 5702
5723 5729 5720 5712 5704 5697 5695 5686 5716 5739 5760 5789 5799 5805 5809 5809 5804 5797 5794 5790 5787 5784 5783 5778 5771 5765 5761 5758 5753 5747 5741 5736 5736 5735 5732 5730 5728 5727 5726 5723 5719 5716 5714 5712 5711 5708 5704 5698 5693
5727 5729 5717 5709 5700 5692 5694 5682 5706 5728 5738 5764 5783 5795 5803 5804 5798 5791 5788 5784 5782 5778 5776 5773 5767 5761 5758 5755 5750 5745 5740 5736 5733 5731 5727 5724 5723 5721 5718 5715 5712 5709 5707 5706 5706 5704 5702 5698 5693
5734 5723 5714 5707 5695 5682 5702 5691 5700 5718 5732 5750 5769 5782 5791 5793 5790 5783 5781 5776 5772 5770 5769 5767 5761 5756 5753 5749 5746 5740 5735 5731 5726 5722 5720 5717 5715 5713 5712 5709 5706 5704 5702 5701 5701 5700 5699 5697 5694
5725 5705 5682 5676 5674 5686 5715 5703 5710 5731 5744 5752 5760 5769 5777 5781 5778 5771 5767 5763 5760 5760 5761 5761 5756 5749 5746 5742 5739 5736 5732 5728 5723 5720 5715 5711 5707 5704 5703 5702 5700 5699 5699 5698 5697 5697 5696 5695 5693
5711 5705 5677 5663 5669 5682 5698 5703 5727 5746 5754 5759 5763 5767 5768 5768 5765 5761 5759 5756 5754 5755 5756 5754 5749 5743 5740 5737 5736 5735 5732 5725 5722 5720 5714 5708 5704 5702 5700 5697 5695 5694 5695 5695 5695 5694 5694 5694 5695
5699 5705 5710 5692 5686 5683 5698 5719 5739 5747 5748 5752 5755 5758 5760 5761 5760 5758 5757 5755 5752 5751 5750 5748 5744 5739 5736 5735 5735 5732 5728 5723 5719 5716 5712 5706 5702 5698 5695 5692 5690 5690 5691 5692 5691 5690 5690 5691 5693
5709 5701 5693 5677 5664 5672 5691 5701 5694 5715 5731 5741 5743 5742 5746 5750 5752 5753 5754 5755 5753 5751 5747 5745 5741 5738 5734 5734 5732 5727 5724 5720 5714 5710 5706 5702 5699 5696 5691 5689 5689 5687 5686 5686 5686 5685 5685 5686 5688
5680 5675 5670 5667 5669 5655 5650 5658 5679 5681 5694 5718 5731 5736 5739 5741 5744 5746 5749 5755 5754 5750 5745 5740 5738 5736 5733 5731 5728 5721 5717 5714 5710 5705 5702 5698 5695 5693 5690 5687 5686 5686 5683 5682 5681 5680 5681 5681 5681
5663 5666 5664 5649 5654 5662 5657 5665 5680 5682 5687 5689 5701 5721 5732 5736 5741 5745 5749 5751 5750 5748 5744 5740 5737 5734 5731 5728 5724 5718 5713 5709 5706 5703 5699 5695 5692 5691 5689 5687 5685 5684 5681 5680 5678 5676 5677 5677 5676